Weather observations for the past three days for
Altoona - Blair County Airport
Imperial (Metric)
Date Time (edt) Wind (mph) Vis. (mi.) Weather Sky Cond. Temperature (ºF) Relative Humidity Wind Chill (°F) Heat Index (°F) Pressure Precipitation (in)
Air Dwpt 6 hour altimeter (in) sea level (mb) 1 hr 3 hr 6 hr
Max. Min.
24 08:53 NW 15 G 25 10.00 Partly Cloudy SCT026 68 55.9 65% 29.86 1010.2
24 07:53 NW 16 G 31 10.00 Mostly Cloudy BKN027 BKN031 66 55 70 66 68% 29.85 1009.8
24 06:53 NW 12 G 21 10.00 A Few Clouds FEW002 66 55.9 70% 29.81 1008.6
24 05:53 NW 5 10.00 Overcast OVC023 66.9 57.9 73% 29.79 1007.6
24 04:53 NW 5 10.00 Overcast OVC021 69.1 61 76% 29.77 1006.6
24 03:53 NW 10 10.00 Mostly Cloudy BKN024 BKN028 BKN034 70 62.1 76% 29.76 1006.4
24 02:53 NW 7 10.00 A Few Clouds FEW065 69.1 62.1 78% 29.75 1006.2
24 01:53 W 7 10.00 Overcast BKN027 OVC055 70 64 75.9 70 82% 29.75 1006.0 0.02
24 00:53 W 6 10.00 Mostly Cloudy FEW022 BKN048 71.1 64.9 81% 29.73 1005.4
23 23:53 NW 3 10.00 Mostly Cloudy BKN042 BKN070 72 66.9 84% 29.74 1005.7
23 22:53 W 7 10.00 Overcast SCT028 BKN049 OVC075 73 69.1 87% 29.74 1005.7 0.02 0.02
23 21:53 W 9 8.00 Light Rain FEW023 BKN028 OVC037 75 68 79% 76 29.73 1005.3
23 20:53 SW 7 10.00 Fair CLR 73.9 69.1 85% 29.7 1004.4
23 19:53 SW 12 10.00 Partly Cloudy FEW047 SCT055 75.9 69.1 87.1 75 79% 77 29.7 1004.3 0.15
23 18:53 W 7 10.00 Overcast FEW035 BKN045 OVC060 75 70 84% 75 29.71 1004.7 0.11
23 17:53 SW 16 G 24 10.00 Partly Cloudy FEW046 SCT080 SCT090 82.9 66.9 59% 86 29.7 1004.1
23 16:53 SW 20 G 32 10.00 A Few Clouds FEW043 FEW055 84 68 59% 87 29.71 1004.5 0.04
23 15:53 SW 10 G 21 10.00 Mostly Cloudy FEW048 SCT060 BKN090 79 70 74% 82 29.74 1005.8 0.04
23 14:53 SW 13 G 28 10.00 Mostly Cloudy SCT070 BKN085 84 64 51% 85 29.74 1005.7
23 13:53 SW 22 G 32 10.00 Mostly Cloudy and Breezy SCT055 BKN120 84.9 64 87.1 80.1 50% 86 29.75 1005.9
23 12:53 SW 14 G 31 10.00 Partly Cloudy FEW047 SCT060 86 64 48% 87 29.77 1006.5
23 11:53 SW 18 G 31 10.00 A Few Clouds FEW046 86 64.9 49% 88 29.79 1007.3
23 10:53 W 15 G 26 10.00 Partly Cloudy SCT100 84.9 64.9 51% 87 29.8 1007.6
23 09:53 SW 14 G 20 10.00 Mostly Cloudy BKN120 82 66.9 60% 85 29.82 1008.1
23 08:53 S 13 10.00 Partly Cloudy SCT110 82 66.9 60% 85 29.82 1008.4
23 07:53 S 13 10.00 A Few Clouds FEW110 80.1 66 80.1 73.9 62% 82 29.84 1008.9
23 06:53 SW 9 10.00 Fair CLR 77 64.9 66% 79 29.85 1009.2
23 05:53 SW 9 10.00 Fair CLR 75.9 64.9 69% 78 29.86 1009.4
23 04:53 SW 8 10.00 Fair CLR 75 64.9 71% 77 29.87 1009.8
23 03:53 SW 6 10.00 Fair CLR 75.9 64 67% 78 29.88 1010.3
23 02:53 S 5 10.00 Fair CLR 75.9 64 67% 78 29.89 1010.8
23 01:53 Calm 10.00 Fair CLR 75.9 64 88 73.9 67% 78 29.92 1011.5
23 00:53 Calm 10.00 A Few Clouds FEW100 78.1 64 62% 80 29.93 1012.0
22 23:53 Calm 10.00 Fair CLR 78.1 64 62% 80 29.94 1012.4
22 22:53 SW 6 10.00 Partly Cloudy SCT090 80.1 64 58% 82 29.95 1012.6
22 21:53 SW 5 10.00 Mostly Cloudy BKN095 82 64.9 56% 84 29.96 1012.9
22 20:53 SW 5 10.00 Overcast OVC090 84.9 64.9 51% 87 29.96 1013.0
22 19:53 W 6 10.00 Fair CLR 88 64.9 96.1 88 46% 90 29.96 1012.9
22 18:53 W 10 10.00 Fair CLR 91 63 39% 92 29.95 1012.8
22 17:53 W 9 10.00 Fair CLR 93.9 61 33% 94 29.96 1013.1
22 16:53 W 12 10.00 Fair CLR 93.9 60.1 32% 94 29.97 1013.5
22 15:53 W 10 G 17 10.00 Fair CLR 95 60.1 31% 95 30 1014.1
22 14:53 Vrbl 5 10.00 Partly Cloudy FEW070 SCT095 93 64.9 40% 95 30.01 1014.9
22 13:53 Vrbl 3 10.00 Fair CLR 93 64.9 93.9 77 40% 95 30.04 1015.8
22 12:53 NW 6 10.00 Partly Cloudy FEW047 SCT065 SCT090 91.9 66.9 44% 95 30.07 1016.9
22 11:53 W 7 10.00 Mostly Cloudy SCT047 SCT055 BKN070 89.1 66.9 48% 92 30.09 1017.3
22 10:53 Vrbl 5 10.00 Fair CLR 89.1 68 50% 93 30.1 1017.7
22 09:53 SW 6 10.00 Fair CLR 84 68 59% 87 30.12 1018.6
22 08:53 SW 5 8.00 Fair CLR 81 66.9 62% 83 30.13 1018.9
22 07:53 Calm 8.00 A Few Clouds FEW060 77 66 77 68 69% 79 30.13 1019.0
22 06:53 S 3 4.00 Partly Cloudy with Haze SCT060 71.1 66 84% 30.13 1019.0
22 05:53 Calm 5.00 Fair with Haze CLR 69.1 64 84% 30.14 1019.2
22 04:53 W 3 5.00 Fog/Mist CLR 69.1 64.9 87% 30.13 1019.0
22 03:53 Calm 8.00 Fair CLR 70 64 82% 30.13 1018.8
22 02:53 S 3 8.00 Fair CLR 71.1 64.9 81% 30.14 1019.2
22 01:53 Calm 8.00 Fair CLR 72 64.9 87.1 70 79% 30.14 1019.5
22 00:53 Calm 9.00 Fair CLR 72 64.9 79% 30.15 1019.7
21 23:53 Calm 10.00 Fair CLR 75.9 64.9 69% 78 30.16 1019.9
21 22:53 Calm 10.00 Fair CLR 77 66 69% 79 30.17 1020.0
21 21:53 S 3 10.00 Fair CLR 77 66.9 71% 79 30.16 1019.8
21 20:53 Calm 10.00 Fair CLR 81 66 61% 83 30.15 1019.4
21 19:53 NW 6 10.00 Fair CLR 87.1 63 93 87.1 45% 88 30.15 1019.5
21 18:53 Vrbl 7 10.00 Fair CLR 89.1 68 50% 93 30.14 1019.1
21 17:53 Vrbl 7 10.00 Fair CLR 90 69.1 50% 95 30.14 1019.4
21 16:53 Calm 10.00 A Few Clouds FEW060 91 66 44% 94 30.16 1019.8
21 15:53 W 5 10.00 Partly Cloudy SCT055 91 66.9 45% 94 30.17 1020.3
21 14:53 NW 6 10.00 Fair CLR 91 66 44% 94 30.19 1021.0
21 13:53 Vrbl 5 10.00 A Few Clouds FEW075 87.1 69.1 91 75.9 55% 91 30.22 1021.9
21 12:53 Calm 10.00 Thunderstorm BKN049 BKN060 88 64.9 46% 90 30.24 1022.5
21 11:53 Calm 10.00 Partly Cloudy SCT046 89.1 64.9 45% 91 30.25 1022.9
21 10:53 W 3 10.00 Fair CLR 88 66 48% 90 30.26 1023.2
21 09:53 Calm 10.00 Fair CLR 84.9 66.9 55% 88 30.26 1023.4
Date Time (edt) Wind (mph) Vis. (mi.) Weather Sky Cond. Air Dwpt Max. Min. Relative Humidity Wind Chill (°F) Heat Index (°F) altimeter (in) sea level (mb) 1 hr 3 hr 6 hr
6 hour
Temperature (ºF) Pressure Precipitation (in)